Flag for Mexico Weather past 2 weeks in Merida, Yucatán, Mexico

91 °F

Partly sunny.

Feels Like: 100 °F
Forecast: 74 / 89 °F
Wind: No wind

Location: Aerop. Internacional Merida - Yuc

Current Time: Oct 10, 2015 at 1:50:19 PM

Latest Report: Oct 10, 2015 at 12:46 PM

Visibility: 7 mi

Pressure: 29.99 "Hg

Humidity: 56%

Dew point: 73 °F

Location of MeridaLocation

Historic Weather in Merida — Graph


Merida temperature yesterday

Maximum temperature yesterday: 95 °F (at 2:53 PM)
Minimum temperature yesterday: 73 °F (at 10:48 PM)
Average temperature yesterday: 83 °F

Past Weeks' High & Low Weather Summary

High95 °F (Oct 9, 2:53 PM)100% (Sep 25, 5:15 PM)30.03 "Hg (Sep 25, 5:15 PM)
Low34 °F (Sep 25, 5:15 PM)44% (Oct 9, 3:47 PM)29.72 "Hg (Oct 2, 4:56 AM)
Average79 °F80%29.86 "Hg
* Reported Sep 25 12:47 PM — Oct 10 12:46 PM, Merida, Weather by CustomWeather, © 2015

Note: Actual official high and low records may vary slightly from our data, if they occured in-between our weather recording intervals... More about our weather records


Merida weather history for previous 24 hours

Time TempWeatherWind HumidityBarometerVisibility
12:46 PM
Sat, Oct 10
91 °FPartly sunny.No wind56%29.99 "Hg7 mi
11:45 AM90 °FPartly sunny.No wind67%30.03 "Hg7 mi
7:46 AM77 °FPassing clouds.No wind94%30.00 "Hg7 mi
6:47 AM75 °FPassing clouds.8 mph94%30.01 "Hg5 mi
5:47 AM75 °FClear.5 mph94%29.99 "Hg7 mi
4:46 AM77 °FPassing clouds.5 mph94%29.97 "Hg7 mi
3:54 AM77 °FPassing clouds.5 mph94%29.99 "Hg7 mi
2:46 AM75 °FPassing clouds.No wind94%29.98 "Hg7 mi
1:46 AM75 °FPartly cloudy.No wind94%29.99 "Hg7 mi
12:46 AM75 °FOvercast.6 mph94%30.02 "Hg7 mi
11:45 PM
Fri, Oct 9
75 °FLight rain. Passing clouds.10 mph100%30.03 "Hg6 mi
10:48 PM73 °FThunderstorms. Overcast.18 mph94%30.02 "Hg3 mi
9:47 PM79 °FThunderstorms. Passing clouds.13 mph94%29.99 "Hg4 mi
8:46 PM82 °FLight rain. Passing clouds.12 mph84%29.98 "Hg6 mi
7:54 PM84 °FPassing clouds.5 mph79%29.97 "Hg7 mi
5:53 PM86 °FPartly sunny.7 mph70%29.92 "Hg7 mi
4:50 PM86 °FPartly sunny.8 mph70%29.91 "Hg7 mi
3:47 PM95 °FPartly sunny.9 mph44%30.01 "Hg7 mi
2:53 PM95 °FPartly sunny.9 mph50%29.91 "Hg7 mi
1:46 PM93 °FPartly sunny.5 mph53%29.94 "Hg7 mi
Weather by CustomWeather, © 2015

See weather overviewHow to use our weather pages